マクノート彗星

C/2006 P1 ( McNaught )

English version
Home page
Updated on January 20, 2013

---------------------------------------------------------------------

・ プロフィール

発見日 2006年8月7日
発見光度 17.3等
発見者 R. H. McNaught (Siding Spring Survey)

・ 写真集

・ 軌道要素

Epoch 2007 Jan. 20.0 TT = JDT 2454120.5
T 2007 Jan. 12.79875 TT                                 MPC
q   0.1707327            (2000.0)            P               Q
z  -0.0001070      Peri.  155.97560     +0.12688552     -0.17387931
 +/-0.0000025      Node   267.41491     +0.67529017     +0.73627680
e   1.0000183      Incl.   77.83725     +0.72655575     -0.65395907
From 320 observations 2006 Aug. 7-2007 July 11, mean residual 0".4.

・ 星図

・ 光度変化

        m1 = 4.0 + 5 logΔ + 17.5 log r           [   ,-75]  (              〜2006年10月29日)
        m1 = 6.0 + 5 logΔ + 10.0 log r           [-75,-19]  (2006年10月29日〜2006年12月24日)
        m1 = 6.4 + 5 logΔ + 14.0 log r(t - 1.4)  [-19,  8]  (2006年12月24日〜2007年 1月20日)
        m1 = 3.8 + 5 logΔ + 10.0 log r           [  8, 55]  (2007年 1月20日〜2007年 3月 8日)
        m1 = 3.0 + 5 logΔ + 15.0 log r           [ 55,   ]  (2007年 3月 8日〜              )

---------------------------------------------------------------------

軌道要素はM.P.E.C. 2013-A29に掲載されたものです。
星図は StellaNavigator Ver.2.0 for Windows (アストロアーツ 編著 / アスキー出版局刊) で作成したものです。
光度グラフはComet for Windowsで作成したものです。

---------------------------------------------------------------------

Copyright(C) Seiichi Yoshida (comet@aerith.net). All rights reserved.